GW3068 Weather Reports


time (UTC)temp
C
wind
direction
speed
KPH
gust
KPH
rain 1hr
cm
rain 24hr
cm
rain mn
cm
humidity
%
barometer
mb
20260508220555 16 200 6.4 14.5 0.00 0.00 0.00 53 1004.9
20260508220100 16 207 6.4 14.5 0.00 0.00 0.00 55 1005.0
20260508215558 16 189 3.2 19.3 0.00 0.00 0.00 50 1005.1
20260508215058 16 186 6.4 19.3 0.00 0.00 0.00 49 1005.0
20260508214605 16 260 4.8 14.5 0.00 0.00 0.00 49 1004.9
20260508214057 16 166 4.8 17.7 0.00 0.00 0.00 49 1004.8
20260508213558 16 271 6.4 19.3 0.00 0.00 0.00 49 1004.9
20260508213058 16 24 4.8 19.3 0.00 0.00 0.00 47 1004.9
20260508212555 17 252 4.8 25.7 0.00 0.00 0.00 46 1005.0
20260508212055 17 180 8.0 25.7 0.00 0.00 0.00 52 1005.0
20260508211555 17 160 9.7 19.3 0.00 0.00 0.00 51 1004.9
20260508211058 16 180 6.4 17.7 0.00 0.00 0.00 51 1005.1
20260508210559 16 175 8.0 17.7 0.00 0.00 0.00 51 1005.1
20260508210107 16 236 3.2 14.5 0.00 0.00 0.00 49 1005.2
20260508205557 16 202 6.4 14.5 0.00 0.00 0.00 49 1005.2
20260508205058 16 93 4.8 11.3 0.00 0.00 0.00 50 1005.1
20260508204558 16 176 3.2 12.9 0.00 0.00 0.00 53 1005.2
20260508204057 16 217 4.8 12.9 0.00 0.00 0.00 53 1005.2
20260508203559 16 92 4.8 12.9 0.00 0.00 0.00 52 1005.3
20260508203103 16 238 6.4 14.5 0.00 0.00 0.00 51 1005.3
20260508202559 16 178 4.8 16.1 0.00 0.00 0.00 50 1005.3
20260508202055 17 181 4.8 17.7 0.00 0.00 0.00 47 1005.3
20260508201556 17 212 8.0 19.3 0.00 0.00 0.00 47 1005.4
20260508201056 17 292 8.0 19.3 0.00 0.00 0.00 48 1005.5
20260508200553 17 211 6.4 19.3 0.00 0.00 0.00 45 1005.6
20260508200100 17 360 6.4 14.5 0.00 0.00 0.00 47 1005.6
20260508195555 16 144 3.2 17.7 0.00 0.00 0.00 47 1005.7
20260508195055 17 251 3.2 17.7 0.00 0.00 0.00 44 1005.8
20260508194559 17 331 4.8 14.5 0.00 0.00 0.00 45 1005.8
20260508194052 17 275 4.8 17.7 0.00 0.00 0.00 43 1006.1
20260508193555 17 333 6.4 17.7 0.00 0.00 0.00 44 1006.2
20260508193113 17 98 1.6 9.7 0.00 0.00 0.00 49 1006.1
20260508192559 16 259 1.6 16.1 0.00 0.00 0.00 51 1006.4
20260508192055 15 143 3.2 17.7 0.00 0.00 0.00 53 1006.6
20260508191613 15 160 8.0 17.7 0.00 0.00 0.00 51 1006.7
20260508191054 16 150 6.4 16.1 0.00 0.00 0.00 52 1006.7
20260508190555 16 317 3.2 19.3 0.00 0.00 0.00 51 1006.7
20260508190058 16 147 4.8 22.5 0.00 0.00 0.00 52 1006.9
20260508185556 16 191 8.0 22.5 0.00 0.00 0.00 49 1006.9
20260508185055 16 207 4.8 14.5 0.00 0.00 0.00 53 1007.1
20260508184557 15 152 3.2 14.5 0.00 0.00 0.00 57 1007.0
20260508184059 15 175 4.8 25.7 0.00 0.00 0.00 56 1007.1
20260508183555 15 140 8.0 25.7 0.00 0.00 0.00 54 1007.1
20260508183057 16 191 8.0 20.9 0.00 0.00 0.00 49 1007.2
20260508182556 17 190 8.0 17.7 0.00 0.00 0.00 54 1007.1
20260508182055 16 180 3.2 20.9 0.00 0.00 0.00 49 1007.2
20260508181605 16 169 4.8 20.9 0.00 0.00 0.00 49 1007.2
20260508181057 16 234 4.8 17.7 0.00 0.00 0.00 47 1007.4
20260508180553 16 210 6.4 22.5 0.00 0.00 0.00 49 1007.4
20260508180057 16 277 9.7 22.5 0.00 0.00 0.00 51 1007.5
20260508175554 16 123 6.4 17.7 0.00 0.00 0.00 48 1007.4
20260508175054 16 173 4.8 17.7 0.00 0.00 0.00 49 1007.5
20260508174557 15 127 3.2 17.7 0.00 0.00 0.00 49 1007.5
20260508174054 15 183 1.6 11.3 0.00 0.00 0.00 50 1007.7
20260508173555 15 259 3.2 17.7 0.00 0.00 0.00 47 1007.7
20260508173056 15 175 4.8 17.7 0.00 0.00 0.00 45 1007.8
20260508172553 15 188 4.8 14.5 0.00 0.00 0.00 47 1008.0
20260508172056 15 288 4.8 16.1 0.00 0.00 0.00 47 1008.2
20260508171606 16 181 6.4 16.1 0.00 0.00 0.00 48 1008.2
20260508171053 16 344 3.2 19.3 0.00 0.00 0.00 51 1008.3
20260508170553 15 103 11.3 19.3 0.00 0.00 0.00 51 1008.3
20260508170100 15 198 6.4 16.1 0.00 0.00 0.00 56 1008.4
20260508165554 15 270 3.2 9.7 0.00 0.00 0.00 51 1008.4
20260508165055 15 352 3.2 17.7 0.00 0.00 0.00 51 1008.6
20260508164603 15 59 4.8 17.7 0.00 0.00 0.00 56 1008.6
20260508164057 15 163 4.8 19.3 0.00 0.00 0.00 53 1008.7
20260508163553 14 148 4.8 19.3 0.00 0.00 0.00 59 1008.7
20260508163059 13 202 4.8 19.3 0.00 0.00 0.00 59 1008.8
20260508162555 14 184 6.4 19.3 0.00 0.00 0.00 61 1008.9
20260508162059 14 215 6.4 17.7 0.00 0.00 0.00 54 1009.0
20260508161559 14 154 6.4 17.7 0.00 0.00 0.00 58 1008.9
20260508161055 14 207 3.2 16.1 0.00 0.00 0.00 58 1009.1
20260508160555 13 167 6.4 17.7 0.00 0.00 0.00 55 1009.1
20260508160100 13 214 6.4 17.7 0.00 0.00 0.00 60 1009.1
20260508155553 13 187 4.8 14.5 0.00 0.00 0.00 59 1009.1
20260508155053 13 176 6.4 14.5 0.00 0.00 0.00 57 1009.1
20260508154601 13 124 3.2 9.7 0.00 0.00 0.00 58 1009.1
20260508154054 13 79 3.2 11.3 0.00 0.00 0.00 59 1009.1
20260508153555 13 196 3.2 12.9 0.00 0.00 0.00 59 1009.2
20260508153108 13 157 3.2 12.9 0.00 0.00 0.00 59 1009.2
20260508152557 13 0 3.2 6.4 0.00 0.00 0.00 56 1009.3
20260508152055 13 341 3.2 11.3 0.00 0.00 0.00 57 1009.3
20260508151603 12 5 0.0 11.3 0.00 0.00 0.00 60 1009.3
20260508151055 12 141 4.8 11.3 0.00 0.00 0.00 57 1009.4
20260508150553 13 0 3.2 9.7 0.00 0.00 0.00 55 1009.4
20260508150057 13 24 1.6 6.4 0.00 0.00 0.00 60 1009.4
20260508145555 12 0 0.0 9.7 0.00 0.00 0.00 58 1009.5
20260508145053 12 0 3.2 9.7 0.00 0.00 0.00 59 1009.6
20260508144559 12 285 3.2 9.7 0.00 0.00 0.00 57 1009.5
20260508144054 13 301 3.2 9.7 0.00 0.00 0.00 64 1009.4
20260508143555 12 340 1.6 8.0 0.00 0.00 0.00 66 1009.4
20260508143104 12 317 1.6 8.0 0.00 0.00 0.00 64 1009.5
20260508142555 12 336 0.0 8.0 0.00 0.00 0.00 68 1009.5
20260508142054 12 0 1.6 8.0 0.00 0.00 0.00 65 1009.7
20260508141600 12 5 1.6 8.0 0.00 0.00 0.00 68 1009.8
20260508141055 11 28 3.2 8.0 0.00 0.00 0.00 68 1009.7
20260508140555 11 0 1.6 9.7 0.00 0.00 0.00 69 1009.8
20260508135555 11 352 1.6 6.4 0.00 0.00 0.00 72 1009.9
20260508135053 11 279 3.2 6.4 0.00 0.00 0.00 73 1009.9
20260508134559 11 351 1.6 6.4 0.00 0.00 0.00 75 1009.9
20260508134054 11 287 1.6 8.0 0.00 0.00 0.00 75 1009.8
20260508133556 10 47 3.2 8.0 0.00 0.00 0.00 77 1009.7
20260508133113 10 306 1.6 9.7 0.00 0.00 0.00 77 1009.7
20260508132554 10 283 3.2 9.7 0.00 0.00 0.00 78 1009.8
20260508132054 10 261 3.2 11.3 0.00 0.00 0.00 76 1009.8
20260508131602 10 11 1.6 11.3 0.00 0.00 0.00 78 1009.8
20260508131054 10 262 1.6 8.0 0.00 0.00 0.00 79 1009.9
20260508130555 9 312 1.6 8.0 0.00 0.00 0.00 78 1010.0
20260508130111 9 28 3.2 8.0 0.00 0.00 0.00 81 1009.9
20260508125555 9 346 1.6 8.0 0.00 0.00 0.00 81 1009.9
20260508125054 9 0 0.0 8.0 0.00 0.00 0.00 81 1009.9
20260508124559 8 352 3.2 8.0 0.00 0.00 0.00 81 1009.9
20260508124055 8 352 1.6 4.8 0.00 0.00 0.00 82 1009.8
20260508123555 8 352 1.6 6.4 0.00 0.00 0.00 83 1009.9
20260508123109 7 333 1.6 6.4 0.00 0.00 0.00 84 1009.8
20260508122554 7 286 1.6 4.8 0.00 0.00 0.00 84 1009.7
20260508122057 7 0 0.0 1.6 0.00 0.00 0.00 84 1009.7
20260508121607 7 0 0.0 0.0 0.00 0.00 0.00 83 1009.6
20260508121053 7 0 0.0 0.0 0.00 0.00 0.00 85 1009.5
20260508120553 6 0 0.0 0.0 0.00 0.00 0.00 86 1009.6
20260508120059 6 0 0.0 1.6 0.00 0.00 0.00 86 1009.6
20260508115555 6 0 0.0 1.6 0.00 0.00 0.00 87 1009.6
20260508115054 6 0 0.0 0.0 0.00 0.00 0.00 88 1009.7
20260508114557 6 0 0.0 0.0 0.00 0.00 0.00 89 1009.6
20260508114055 5 0 0.0 0.0 0.00 0.00 0.00 89 1009.5
20260508113556 5 0 0.0 0.0 0.00 0.00 0.00 90 1009.5
20260508113102 5 0 0.0 0.0 0.00 0.00 0.00 90 1009.5
20260508112554 5 0 0.0 0.0 0.00 0.00 0.00 90 1009.4
20260508112055 4 0 0.0 0.0 0.00 0.00 0.00 89 1009.5
20260508111556 4 0 0.0 0.0 0.00 0.00 0.00 90 1009.3
20260508111100 4 0 0.0 0.0 0.00 0.00 0.00 89 1009.3
20260508110555 4 0 0.0 0.0 0.00 0.00 0.00 89 1009.1
20260508110057 4 0 0.0 0.0 0.00 0.00 0.00 89 1009.1
20260508105554 4 0 0.0 0.0 0.00 0.00 0.00 89 1009.0
20260508105055 4 0 0.0 0.0 0.00 0.00 0.00 88 1008.8
20260508104620 4 0 0.0 0.0 0.00 0.00 0.00 88 1008.9
20260508104057 5 0 0.0 4.8 0.00 0.00 0.00 87 1008.9
20260508103555 5 0 0.0 4.8 0.00 0.00 0.00 88 1008.8
20260508103056 5 215 1.6 4.8 0.00 0.00 0.00 88 1008.8
20260508102555 5 0 0.0 4.8 0.00 0.00 0.00 88 1008.7
20260508102055 5 0 0.0 1.6 0.00 0.00 0.00 87 1008.6
20260508101557 5 0 0.0 1.6 0.00 0.00 0.00 87 1008.8
20260508101055 5 0 0.0 3.2 0.00 0.00 0.00 88 1008.7
20260508100554 5 139 0.0 4.8 0.00 0.00 0.00 87 1008.8
20260508100057 5 0 0.0 4.8 0.00 0.00 0.00 87 1008.8
20260508095555 5 175 0.0 4.8 0.00 0.00 0.00 87 1008.8
20260508095055 5 175 0.0 4.8 0.00 0.00 0.00 87 1008.8
20260508094555 5 186 0.0 6.4 0.00 0.00 0.00 88 1008.7
20260508094056 5 0 3.2 8.0 0.00 0.00 0.00 89 1008.9
20260508093558 5 167 3.2 8.0 0.00 0.00 0.00 89 1009.0
20260508093055 4 188 0.0 4.8 0.00 0.00 0.00 89 1009.0
20260508092557 4 0 0.0 0.0 0.00 0.00 0.00 89 1008.9
20260508092058 4 0 0.0 0.0 0.00 0.00 0.00 89 1008.8
20260508091614 4 0 0.0 0.0 0.00 0.00 0.00 89 1008.8
20260508091054 4 0 0.0 0.0 0.00 0.00 0.00 89 1008.8
20260508090557 4 0 0.0 0.0 0.00 0.00 0.00 88 1008.8
20260508090109 4 0 0.0 0.0 0.00 0.00 0.00 88 1008.8
20260508085556 4 0 0.0 0.0 0.00 0.00 0.00 88 1008.9
20260508085056 4 0 0.0 0.0 0.00 0.00 0.00 88 1008.8
20260508084557 4 0 0.0 0.0 0.00 0.00 0.00 88 1008.8
20260508084056 5 0 0.0 0.0 0.00 0.00 0.00 88 1008.9
20260508083554 5 0 0.0 0.0 0.00 0.00 0.00 88 1009.0
20260508083109 4 0 0.0 0.0 0.00 0.00 0.00 87 1009.0
20260508082556 5 0 0.0 0.0 0.00 0.00 0.00 87 1009.0
20260508082054 5 0 0.0 0.0 0.00 0.00 0.00 87 1009.0
20260508081601 5 0 0.0 0.0 0.00 0.00 0.00 87 1009.0
20260508081057 5 0 0.0 0.0 0.00 0.00 0.00 87 1008.9
20260508080557 5 0 0.0 0.0 0.00 0.00 0.00 87 1008.8
20260508080109 5 0 0.0 0.0 0.00 0.00 0.00 86 1008.9
20260508075555 5 0 0.0 0.0 0.00 0.00 0.00 86 1009.0
20260508075055 5 0 0.0 0.0 0.00 0.00 0.00 86 1009.2
20260508074556 5 0 0.0 0.0 0.00 0.00 0.00 86 1009.2
20260508074057 5 0 0.0 0.0 0.00 0.00 0.00 86 1009.3
20260508073555 5 0 0.0 0.0 0.00 0.00 0.00 85 1009.3
20260508073057 5 0 0.0 1.6 0.00 0.00 0.00 85 1009.3
20260508072554 5 0 0.0 3.2 0.00 0.00 0.00 85 1009.3
20260508072054 5 0 0.0 3.2 0.00 0.00 0.00 84 1009.3
20260508071602 5 234 0.0 3.2 0.00 0.00 0.00 84 1009.3
20260508071054 5 0 0.0 3.2 0.00 0.00 0.00 84 1009.4
20260508070558 5 0 0.0 3.2 0.00 0.00 0.00 84 1009.4
20260508070140 5 0 0.0 1.6 0.00 0.00 0.00 84 1009.4
20260508065557 5 0 0.0 1.6 0.00 0.00 0.00 84 1009.3
20260508065056 5 0 0.0 3.2 0.00 0.00 0.00 84 1009.4
20260508064608 5 0 0.0 3.2 0.00 0.00 0.00 84 1009.4
20260508064057 5 234 0.0 3.2 0.00 0.00 0.00 84 1009.5
20260508063555 5 0 0.0 3.2 0.00 0.00 0.00 84 1009.6
20260508063058 5 0 0.0 0.0 0.00 0.00 0.00 84 1009.6
20260508062555 5 0 0.0 0.0 0.00 0.00 0.00 83 1009.5
20260508062055 5 0 0.0 0.0 0.00 0.00 0.00 82 1009.6
20260508061603 5 0 0.0 0.0 0.00 0.00 0.00 82 1009.4
20260508061057 5 0 0.0 0.0 0.00 0.00 0.00 82 1009.4
20260508060554 5 0 0.0 0.0 0.00 0.00 0.00 82 1009.4
20260508060057 5 0 0.0 0.0 0.00 0.00 0.00 81 1009.5
20260508055557 5 0 0.0 0.0 0.00 0.00 0.00 81 1009.4
20260508055057 5 0 0.0 0.0 0.00 0.00 0.00 80 1009.4
20260508054554 6 0 0.0 1.6 0.00 0.00 0.00 80 1009.5
20260508054056 6 0 0.0 1.6 0.00 0.00 0.00 80 1009.6
20260508053557 6 234 0.0 3.2 0.00 0.00 0.00 79 1009.5
20260508053104 6 0 0.0 3.2 0.00 0.00 0.00 79 1009.6
20260508052557 6 0 0.0 4.8 0.00 0.00 0.00 79 1009.7
20260508052055 6 0 0.0 4.8 0.00 0.00 0.00 78 1009.6
20260508051558 6 0 0.0 4.8 0.00 0.00 0.00 79 1009.6
20260508051057 6 0 0.0 0.0 0.00 0.00 0.00 79 1009.7
20260508050555 6 0 0.0 0.0 0.00 0.00 0.00 79 1009.6
20260508050100 6 0 0.0 0.0 0.00 0.00 0.00 79 1009.6
20260508045556 6 0 0.0 0.0 0.00 0.00 0.00 78 1009.6
20260508045055 6 0 0.0 0.0 0.00 0.00 0.00 78 1009.5
20260508044557 6 0 0.0 0.0 0.00 0.00 0.00 77 1009.6
20260508044058 6 0 0.0 0.0 0.00 0.00 0.00 78 1009.6
20260508043556 6 0 0.0 0.0 0.00 0.00 0.00 78 1009.5
20260508043104 6 0 0.0 0.0 0.00 0.00 0.00 78 1009.5
20260508042557 6 0 0.0 1.6 0.00 0.00 0.00 77 1009.5
20260508042057 6 0 0.0 3.2 0.00 0.00 0.00 77 1009.6
20260508041557 7 0 0.0 4.8 0.00 0.00 0.00 77 1009.6
20260508041057 7 0 0.0 4.8 0.00 0.00 0.00 76 1009.5
20260508040555 7 137 0.0 4.8 0.00 0.00 0.00 77 1009.5
20260508040100 7 0 0.0 4.8 0.00 0.00 0.00 76 1009.5
20260508035557 7 0 1.6 6.4 0.00 0.00 0.00 76 1009.5
20260508035055 7 0 1.6 6.4 0.00 0.00 0.00 76 1009.6
20260508034556 7 0 0.0 6.4 0.00 0.00 0.00 75 1009.6
20260508034053 7 163 0.0 6.4 0.00 0.00 0.00 75 1009.6
20260508033553 8 167 1.6 6.4 0.00 0.00 0.00 74 1009.6
20260508033054 8 202 3.2 6.4 0.00 0.00 0.00 74 1009.6
20260508032554 8 134 1.6 6.4 0.00 0.00 0.00 73 1009.7
20260508032059 8 0 1.6 6.4 0.00 0.00 0.00 73 1009.8
20260508031558 8 191 1.6 4.8 0.00 0.00 0.00 73 1009.8
20260508031101 8 203 0.0 4.8 0.00 0.00 0.00 73 1009.8
20260508030557 8 203 0.0 4.8 0.00 0.00 0.00 74 1009.8
20260508025554 8 0 0.0 8.0 0.00 0.00 0.00 73 1009.7
20260508025055 8 203 0.0 8.0 0.00 0.00 0.00 73 1009.9
20260508024601 8 0 0.0 3.2 0.00 0.00 0.00 73 1010.0
20260508024058 8 173 0.0 8.0 0.00 0.00 0.00 74 1010.0
20260508023555 8 0 1.6 8.0 0.00 0.00 0.00 75 1010.1
20260508023055 8 0 0.0 3.2 0.00 0.00 0.00 75 1009.9
20260508022556 8 0 0.0 3.2 0.00 0.00 0.00 75 1009.8
20260508022055 8 0 0.0 4.8 0.00 0.00 0.00 73 1009.9
20260508021559 8 0 0.0 4.8 0.00 0.00 0.00 73 1009.8
20260508021059 8 245 0.0 4.8 0.00 0.00 0.00 72 1009.8
20260508020602 8 0 0.0 4.8 0.00 0.00 0.00 71 1009.8
20260508020100 9 0 0.0 11.3 0.00 0.00 0.00 69 1009.7
20260508015558 9 304 3.2 11.3 0.00 0.00 0.00 69 1009.7
20260508015059 10 55 3.2 11.3 0.00 0.00 0.00 66 1009.8
20260508014556 10 0 3.2 11.3 0.00 0.00 0.00 64 1009.9
20260508014057 10 163 4.8 11.3 0.00 0.00 0.00 62 1009.8
20260508013556 10 0 1.6 3.2 0.00 0.00 0.00 62 1009.8
20260508013104 10 0 0.0 3.2 0.00 0.00 0.00 64 1009.7
20260508012557 10 0 0.0 3.2 0.00 0.00 0.00 67 1009.5
20260508012057 10 242 0.0 3.2 0.00 0.00 0.00 67 1009.3
20260508011557 10 0 0.0 6.4 0.00 0.00 0.00 62 1009.2
20260508011054 10 334 1.6 8.0 0.00 0.00 0.00 62 1009.0
20260508010557 10 5 3.2 8.0 0.00 0.00 0.00 62 1009.0
20260508010058 10 350 4.8 8.0 0.00 0.00 0.00 63 1009.0
20260508005556 10 313 0.0 6.4 0.00 0.00 0.00 56 1009.2
20260508005055 10 0 0.0 3.2 0.00 0.00 0.00 56 1009.1
20260508004600 10 0 0.0 4.8 0.00 0.00 0.00 62 1009.0
20260508004058 10 0 1.6 4.8 0.00 0.00 0.00 58 1008.9
20260508003553 10 335 0.0 3.2 0.00 0.00 0.00 57 1008.9
20260508003055 10 0 0.0 0.0 0.00 0.00 0.00 54 1008.9
20260508002557 10 0 0.0 0.0 0.00 0.00 0.00 57 1008.8
20260508002057 10 0 0.0 0.0 0.00 0.00 0.00 54 1008.8
20260508001556 10 0 0.0 0.0 0.00 0.00 0.00 56 1008.7
20260508001057 10 0 0.0 0.0 0.00 0.00 0.00 60 1008.8
20260508000558 10 0 0.0 1.6 0.00 0.00 0.00 59 1008.8
20260508000057 10 0 0.0 1.6 0.00 0.00 0.00 55 1008.9
20260507235557 10 335 0.0 3.2 0.00 0.00 0.00 57 1008.9
20260507235057 10 0 0.0 3.2 0.00 0.00 0.00 56 1008.9
20260507234555 11 335 0.0 4.8 0.00 0.00 0.00 53 1008.9
20260507234057 11 0 0.0 6.4 0.00 0.00 0.00 53 1008.8
20260507233557 11 335 1.6 8.0 0.00 0.00 0.00 51 1008.8
20260507233055 11 0 1.6 9.7 0.00 0.00 0.00 50 1008.9
20260507232600 11 296 3.2 9.7 0.00 0.00 0.00 49 1008.8
20260507232058 12 331 1.6 9.7 0.00 0.00 0.00 47 1008.9
20260507231555 12 245 3.2 12.9 0.00 0.00 0.00 47 1008.9
20260507231054 12 333 4.8 14.5 0.00 0.00 0.00 47 1008.9
20260507230557 12 49 3.2 14.5 0.00 0.00 0.00 48 1008.9
20260507230105 12 277 4.8 14.5 0.00 0.00 0.00 47 1009.0
20260507225555 12 352 1.6 12.9 0.00 0.00 0.00 48 1009.0
20260507225055 12 284 3.2 12.9 0.00 0.00 0.00 49 1009.0
20260507224604 12 24 3.2 12.9 0.00 0.00 0.00 45 1009.1
20260507224056 12 248 1.6 6.4 0.00 0.00 0.00 48 1009.1
20260507223556 12 0 1.6 16.1 0.00 0.00 0.00 49 1009.2
20260507223057 12 42 4.8 16.1 0.00 0.00 0.00 49 1009.1
20260507222555 12 334 4.8 12.9 0.00 0.00 0.00 44 1009.1
20260507222054 13 20 1.6 8.0 0.00 0.00 0.00 44 1009.1
20260507221601 13 324 1.6 9.7 0.00 0.00 0.00 46 1009.1
20260507221055 12 333 3.2 9.7 0.00 0.00 0.00 48 1009.1